Year,Month,Day,Hour,Minute,Value (Times are PST for barometer in hPa)
2010,04,02,00,00,1004.67
2010,04,02,00,01,1004.67
2010,04,02,00,02,1004.61
2010,04,02,00,03,1004.61
2010,04,02,00,04,1004.57
2010,04,02,00,05,1004.50
2010,04,02,00,06,1004.54
2010,04,02,00,07,1004.57
2010,04,02,00,08,1004.47
2010,04,02,00,09,1004.50
2010,04,02,00,10,1004.47
2010,04,02,00,11,1004.47
2010,04,02,00,12,1004.50
2010,04,02,00,13,1004.50
2010,04,02,00,14,1004.47
2010,04,02,00,15,1004.44
2010,04,02,00,16,1004.40
2010,04,02,00,17,1004.37
2010,04,02,00,18,1004.27
2010,04,02,00,19,1004.23
2010,04,02,00,20,1004.20
2010,04,02,00,21,1004.13
2010,04,02,00,22,1004.13
2010,04,02,00,23,1004.13
2010,04,02,00,24,1004.20
2010,04,02,00,25,1004.11
2010,04,02,00,26,1004.10
2010,04,02,00,27,1004.06
2010,04,02,00,28,1004.00
2010,04,02,00,29,1004.13
2010,04,02,00,30,1004.03
2010,04,02,00,31,1004.00
2010,04,02,00,32,1003.96
2010,04,02,00,33,1004.00
2010,04,02,00,34,1003.96
2010,04,02,00,35,1003.93
2010,04,02,00,36,1003.93
2010,04,02,00,37,1003.79
2010,04,02,00,38,1003.79
2010,04,02,00,39,1003.76
2010,04,02,00,40,1003.59
2010,04,02,00,41,1003.69
2010,04,02,00,42,1003.76
2010,04,02,00,43,1003.66
2010,04,02,00,44,1003.56
2010,04,02,00,45,1003.49
2010,04,02,00,46,1003.46
2010,04,02,00,47,1003.35
2010,04,02,00,48,1003.42
2010,04,02,00,49,1003.35
2010,04,02,00,50,1003.29
2010,04,02,00,51,1003.23
2010,04,02,00,52,1003.18
2010,04,02,00,53,1003.22
2010,04,02,00,54,1003.15
2010,04,02,00,55,1003.24
2010,04,02,00,56,1003.22
2010,04,02,00,57,1003.15
2010,04,02,00,58,1003.12
2010,04,02,00,59,1003.15
2010,04,02,01,00,1003.12
2010,04,02,01,01,1003.08
2010,04,02,01,02,1003.11
2010,04,02,01,03,1002.95
2010,04,02,01,04,1002.98
2010,04,02,01,05,1002.91
2010,04,02,01,06,1002.88
2010,04,02,01,07,1002.91
2010,04,02,01,08,1002.88
2010,04,02,01,09,1002.88
2010,04,02,01,10,1002.85
2010,04,02,01,11,1002.78
2010,04,02,01,12,1002.74
2010,04,02,01,13,1002.78
2010,04,02,01,14,1002.71
2010,04,02,01,15,1002.74
2010,04,02,01,16,1002.71
2010,04,02,01,17,1002.64
2010,04,02,01,18,1002.61
2010,04,02,01,19,1002.64
2010,04,02,01,20,1002.57
2010,04,02,01,21,1002.57
2010,04,02,01,22,1002.47
2010,04,02,01,23,1002.47
2010,04,02,01,24,1002.51
2010,04,02,01,25,1002.37
2010,04,02,01,26,1002.25
2010,04,02,01,27,1002.41
2010,04,02,01,28,1002.44
2010,04,02,01,29,1002.34
2010,04,02,01,30,1002.37
2010,04,02,01,31,1002.37
2010,04,02,01,32,1002.27
2010,04,02,01,33,1002.27
2010,04,02,01,34,1002.30
2010,04,02,01,35,1002.30
2010,04,02,01,36,1002.27
2010,04,02,01,37,1002.17
2010,04,02,01,38,1002.20
2010,04,02,01,39,1002.24
2010,04,02,01,40,1002.17
2010,04,02,01,41,1002.20
2010,04,02,01,42,1002.24
2010,04,02,01,43,1002.24
2010,04,02,01,44,1002.20
2010,04,02,01,45,1002.24
2010,04,02,01,46,1002.20
2010,04,02,01,47,1002.24
2010,04,02,01,48,1002.19
2010,04,02,01,49,1002.10
2010,04,02,01,50,1002.07
2010,04,02,01,51,1002.10
2010,04,02,01,52,1002.03
2010,04,02,01,53,1002.08
2010,04,02,01,54,1002.17
2010,04,02,01,55,1002.10
2010,04,02,01,56,1002.24
2010,04,02,01,57,1002.24
2010,04,02,01,58,1002.27
2010,04,02,01,59,1002.30
2010,04,02,02,00,1002.30
2010,04,02,02,01,1002.27
2010,04,02,02,02,1002.24
2010,04,02,02,03,1002.27
2010,04,02,02,04,1002.24
2010,04,02,02,05,1002.20
2010,04,02,02,06,1002.24
2010,04,02,02,07,1002.13
2010,04,02,02,08,1002.13
2010,04,02,02,09,1002.13
2010,04,02,02,10,1002.03
2010,04,02,02,11,1002.00
2010,04,02,02,12,1001.93
2010,04,02,02,13,1001.93
2010,04,02,02,14,1001.86
2010,04,02,02,15,1001.86
2010,04,02,02,16,1001.93
2010,04,02,02,17,1001.86
2010,04,02,02,18,1001.90
2010,04,02,02,19,1001.86
2010,04,02,02,20,1001.80
2010,04,02,02,21,1001.79
2010,04,02,02,22,1001.69
2010,04,02,02,23,1001.72
2010,04,02,02,24,1001.63
2010,04,02,02,25,1001.63
2010,04,02,02,26,1001.56
2010,04,02,02,27,1001.49
2010,04,02,02,28,1001.52
2010,04,02,02,29,1001.45
2010,04,02,02,30,1001.36
2010,04,02,02,31,1001.39
2010,04,02,02,32,1001.36
2010,04,02,02,33,1001.32
2010,04,02,02,34,1001.32
2010,04,02,02,35,1001.29
2010,04,02,02,36,1001.29
2010,04,02,02,37,1001.22
2010,04,02,02,38,1001.22
2010,04,02,02,39,1001.25
2010,04,02,02,40,1001.25
2010,04,02,02,41,1001.25
2010,04,02,02,42,1001.22
2010,04,02,02,43,1001.19
2010,04,02,02,44,1001.05
2010,04,02,02,45,1001.02
2010,04,02,02,46,1001.08
2010,04,02,02,47,1001.02
2010,04,02,02,48,1000.95
2010,04,02,02,49,1000.95
2010,04,02,02,50,1000.88
2010,04,02,02,51,1000.85
2010,04,02,02,52,1000.88
2010,04,02,02,53,1000.88
2010,04,02,02,54,1000.88
2010,04,02,02,55,1000.88
2010,04,02,02,56,1000.85
2010,04,02,02,57,1000.81
2010,04,02,02,58,1000.81
2010,04,02,02,59,1000.78
2010,04,02,03,00,1000.78
2010,04,02,03,01,1000.68
2010,04,02,03,02,1000.64
2010,04,02,03,03,1000.64
2010,04,02,03,04,1000.61
2010,04,02,03,05,1000.67
2010,04,02,03,06,1000.54
2010,04,02,03,07,1000.51
2010,04,02,03,08,1000.44
2010,04,02,03,09,1000.44
2010,04,02,03,10,1000.43
2010,04,02,03,11,1000.24
2010,04,02,03,12,1000.34
2010,04,02,03,13,1000.37
2010,04,02,03,14,1000.30
2010,04,02,03,15,1000.20
2010,04,02,03,16,1000.24
2010,04,02,03,17,1000.17
2010,04,02,03,18,1000.20
2010,04,02,03,19,1000.17
2010,04,02,03,20,1000.14
2010,04,02,03,21,1000.10
2010,04,02,03,22,1000.09
2010,04,02,03,23,999.97
2010,04,02,03,24,1000.00
2010,04,02,03,25,1000.00
2010,04,02,03,26,1000.00
2010,04,02,03,27,999.99
2010,04,02,03,28,999.90
2010,04,02,03,29,999.93
2010,04,02,03,30,999.90
2010,04,02,03,31,999.93
2010,04,02,03,32,999.93
2010,04,02,03,33,1000.00
2010,04,02,03,34,999.97
2010,04,02,03,35,999.92
2010,04,02,03,36,999.83
2010,04,02,03,37,999.83
2010,04,02,03,38,999.80
2010,04,02,03,39,999.90
2010,04,02,03,40,999.90
2010,04,02,03,41,999.83
2010,04,02,03,42,999.87
2010,04,02,03,43,999.87
2010,04,02,03,44,999.83
2010,04,02,03,45,999.80
2010,04,02,03,46,999.73
2010,04,02,03,47,999.70
2010,04,02,03,48,999.70
2010,04,02,03,49,999.63
2010,04,02,03,50,999.63
2010,04,02,03,51,999.59
2010,04,02,03,52,999.56
2010,04,02,03,53,999.63
2010,04,02,03,54,999.56
2010,04,02,03,55,999.59
2010,04,02,03,56,999.53
2010,04,02,03,57,999.46
2010,04,02,03,58,999.49
2010,04,02,03,59,999.53
2010,04,02,04,00,999.53
2010,04,02,04,01,999.43
2010,04,02,04,02,999.46
2010,04,02,04,03,999.46
2010,04,02,04,04,999.48
2010,04,02,04,05,999.42
2010,04,02,04,06,999.35
2010,04,02,04,07,999.22
2010,04,02,04,08,999.22
2010,04,02,04,09,999.19
2010,04,02,04,10,999.15
2010,04,02,04,11,999.19
2010,04,02,04,12,999.12
2010,04,02,04,13,999.12
2010,04,02,04,14,999.11
2010,04,02,04,15,999.05
2010,04,02,04,16,999.08
2010,04,02,04,17,998.99
2010,04,02,04,18,999.02
2010,04,02,04,19,999.01
2010,04,02,04,20,998.85
2010,04,02,04,21,998.88
2010,04,02,04,22,998.78
2010,04,02,04,23,998.78
2010,04,02,04,24,998.75
2010,04,02,04,25,998.81
2010,04,02,04,26,998.68
2010,04,02,04,27,998.70
2010,04,02,04,28,998.61
2010,04,02,04,29,998.57
2010,04,02,04,30,998.44
2010,04,02,04,31,998.48
2010,04,02,04,32,998.41
2010,04,02,04,33,998.41
2010,04,02,04,34,998.44
2010,04,02,04,35,998.44
2010,04,02,04,36,998.38
2010,04,02,04,37,998.34
2010,04,02,04,38,998.38
2010,04,02,04,39,998.27
2010,04,02,04,40,998.27
2010,04,02,04,41,998.23
2010,04,02,04,42,998.14
2010,04,02,04,43,998.09
2010,04,02,04,44,998.00
2010,04,02,04,45,997.94
2010,04,02,04,46,997.97
2010,04,02,04,47,997.97
2010,04,02,04,48,997.94
2010,04,02,04,49,997.94
2010,04,02,04,50,997.90
2010,04,02,04,51,997.90
2010,04,02,04,52,997.87
2010,04,02,04,53,997.83
2010,04,02,04,54,997.83
2010,04,02,04,55,997.79
2010,04,02,04,56,997.70
2010,04,02,04,57,997.66
2010,04,02,04,58,997.70
2010,04,02,04,59,997.70
2010,04,02,05,00,997.63
2010,04,02,05,01,997.59
2010,04,02,05,02,997.46
2010,04,02,05,03,997.35
2010,04,02,05,04,997.22
2010,04,02,05,05,997.22
2010,04,02,05,06,997.16
2010,04,02,05,07,997.09
2010,04,02,05,08,997.08
2010,04,02,05,09,996.95
2010,04,02,05,10,996.95
2010,04,02,05,11,996.95
2010,04,02,05,12,996.92
2010,04,02,05,13,996.85
2010,04,02,05,14,996.85
2010,04,02,05,15,996.89
2010,04,02,05,16,996.85
2010,04,02,05,17,996.78
2010,04,02,05,18,996.78
2010,04,02,05,19,996.74
2010,04,02,05,20,996.61
2010,04,02,05,21,996.58
2010,04,02,05,22,996.50
2010,04,02,05,23,996.41
2010,04,02,05,24,996.34
2010,04,02,05,25,996.34
2010,04,02,05,26,996.31
2010,04,02,05,27,996.28
2010,04,02,05,28,996.28
2010,04,02,05,29,996.28
2010,04,02,05,30,996.24
2010,04,02,05,31,996.14
2010,04,02,05,32,996.14
2010,04,02,05,33,996.07
2010,04,02,05,34,996.01
2010,04,02,05,35,995.97
2010,04,02,05,36,995.94
2010,04,02,05,37,996.01
2010,04,02,05,38,995.97
2010,04,02,05,39,995.97
2010,04,02,05,40,996.01
2010,04,02,05,41,995.97
2010,04,02,05,42,995.90
2010,04,02,05,43,995.90
2010,04,02,05,44,995.80
2010,04,02,05,45,995.80
2010,04,02,05,46,995.73
2010,04,02,05,47,995.73
2010,04,02,05,48,995.73
2010,04,02,05,49,995.67
2010,04,02,05,50,995.67
2010,04,02,05,51,995.63
2010,04,02,05,52,995.60
2010,04,02,05,53,995.60
2010,04,02,05,54,995.60
2010,04,02,05,55,995.53
2010,04,02,05,56,995.50
2010,04,02,05,57,995.40
2010,04,02,05,58,995.32
2010,04,02,05,59,995.19
2010,04,02,06,00,995.09
2010,04,02,06,01,995.06
2010,04,02,06,02,995.06
2010,04,02,06,03,994.99
2010,04,02,06,04,994.95
2010,04,02,06,05,994.82
2010,04,02,06,06,994.71
2010,04,02,06,07,994.61
2010,04,02,06,08,994.45
2010,04,02,06,09,994.44
2010,04,02,06,10,994.28
2010,04,02,06,11,994.18
2010,04,02,06,12,994.11
2010,04,02,06,13,994.07
2010,04,02,06,14,994.07
2010,04,02,06,15,994.04
2010,04,02,06,16,994.01
2010,04,02,06,17,993.97
2010,04,02,06,18,993.74
2010,04,02,06,19,993.83
2010,04,02,06,20,993.70
2010,04,02,06,21,993.63
2010,04,02,06,22,993.60
2010,04,02,06,23,993.57
2010,04,02,06,24,993.43
2010,04,02,06,25,993.30
2010,04,02,06,26,993.40
2010,04,02,06,27,993.26
2010,04,02,06,28,993.16
2010,04,02,06,29,993.20
2010,04,02,06,30,993.32
2010,04,02,06,31,993.13
2010,04,02,06,32,993.06
2010,04,02,06,33,993.06
2010,04,02,06,34,993.13
2010,04,02,06,35,993.09
2010,04,02,06,36,993.19
2010,04,02,06,37,993.16
2010,04,02,06,38,993.16
2010,04,02,06,39,993.19
2010,04,02,06,40,993.16
2010,04,02,06,41,993.09
2010,04,02,06,42,993.06
2010,04,02,06,43,993.06
2010,04,02,06,44,992.99
2010,04,02,06,45,993.03
2010,04,02,06,46,993.03
2010,04,02,06,47,992.96
2010,04,02,06,48,992.92
2010,04,02,06,49,992.95
2010,04,02,06,50,992.85
2010,04,02,06,51,992.75
2010,04,02,06,52,992.70
2010,04,02,06,53,992.78
2010,04,02,06,54,992.68
2010,04,02,06,55,992.58
2010,04,02,06,56,992.58
2010,04,02,06,57,992.55
2010,04,02,06,58,992.48
2010,04,02,06,59,992.45
2010,04,02,07,00,992.48
2010,04,02,07,01,992.28
2010,04,02,07,02,992.30
2010,04,02,07,03,992.18
2010,04,02,07,04,992.21
2010,04,02,07,05,992.17
2010,04,02,07,06,992.01
2010,04,02,07,07,992.03
2010,04,02,07,08,991.91
2010,04,02,07,09,991.98
2010,04,02,07,10,991.91
2010,04,02,07,11,991.87
2010,04,02,07,12,991.83
2010,04,02,07,13,991.57
2010,04,02,07,14,991.53
2010,04,02,07,15,991.63
2010,04,02,07,16,991.50
2010,04,02,07,17,991.53
2010,04,02,07,18,991.52
2010,04,02,07,19,991.40
2010,04,02,07,20,991.36
2010,04,02,07,21,991.23
2010,04,02,07,22,991.23
2010,04,02,07,23,991.16
2010,04,02,07,24,991.16
2010,04,02,07,25,991.13
2010,04,02,07,26,991.13
2010,04,02,07,27,991.09
2010,04,02,07,28,991.06
2010,04,02,07,29,991.11
2010,04,02,07,30,990.79
2010,04,02,07,31,990.96
2010,04,02,07,32,990.79
2010,04,02,07,33,990.78
2010,04,02,07,34,990.64
2010,04,02,07,35,990.52
2010,04,02,07,36,990.49
2010,04,02,07,37,990.52
2010,04,02,07,38,990.49
2010,04,02,07,39,990.45
2010,04,02,07,40,990.54
2010,04,02,07,41,990.45
2010,04,02,07,42,990.17
2010,04,02,07,43,989.98
2010,04,02,07,44,990.02
2010,04,02,07,45,990.14
2010,04,02,07,46,990.01
2010,04,02,07,47,990.01
2010,04,02,07,48,989.94
2010,04,02,07,49,989.81
2010,04,02,07,50,989.82
2010,04,02,07,51,989.91
2010,04,02,07,52,989.80
2010,04,02,07,53,989.67
2010,04,02,07,54,989.60
2010,04,02,07,55,989.56
2010,04,02,07,56,989.32
2010,04,02,07,57,989.23
2010,04,02,07,58,989.30
2010,04,02,07,59,989.20
2010,04,02,08,00,989.27
2010,04,02,08,01,989.20
2010,04,02,08,02,989.13
2010,04,02,08,03,989.27
2010,04,02,08,04,989.16
2010,04,02,08,05,989.20
2010,04,02,08,06,989.09
2010,04,02,08,07,988.93
2010,04,02,08,08,988.93
2010,04,02,08,09,988.86
2010,04,02,08,10,988.89
2010,04,02,08,11,988.89
2010,04,02,08,12,988.86
2010,04,02,08,13,988.83
2010,04,02,08,14,988.89
2010,04,02,08,15,988.83
2010,04,02,08,16,988.79
2010,04,02,08,17,988.79
2010,04,02,08,18,988.69
2010,04,02,08,19,988.71
2010,04,02,08,20,988.52
2010,04,02,08,21,988.52
2010,04,02,08,22,988.52
2010,04,02,08,23,988.49
2010,04,02,08,24,988.52
2010,04,02,08,25,988.39
2010,04,02,08,26,988.31
2010,04,02,08,27,988.18
2010,04,02,08,28,988.17
2010,04,02,08,29,988.08
2010,04,02,08,30,987.78
2010,04,02,08,31,987.74
2010,04,02,08,32,987.74
2010,04,02,08,33,987.69
2010,04,02,08,34,987.98
2010,04,02,08,35,987.88
2010,04,02,08,36,987.88
2010,04,02,08,37,987.95
2010,04,02,08,38,987.94
2010,04,02,08,39,987.73
2010,04,02,08,40,987.63
2010,04,02,08,41,987.46
2010,04,02,08,42,987.30
2010,04,02,08,43,987.43
2010,04,02,08,44,987.34
2010,04,02,08,45,987.34
2010,04,02,08,46,987.30
2010,04,02,08,47,987.23
2010,04,02,08,48,987.28
2010,04,02,08,49,987.39
2010,04,02,08,50,987.26
2010,04,02,08,51,987.17
2010,04,02,08,52,987.20
2010,04,02,08,53,987.17
2010,04,02,08,54,987.19
2010,04,02,08,55,987.06
2010,04,02,08,56,987.13
2010,04,02,08,57,987.17
2010,04,02,08,58,987.02
2010,04,02,08,59,986.92
2010,04,02,09,00,986.83
2010,04,02,09,01,986.74
2010,04,02,09,02,986.83
2010,04,02,09,03,986.83
2010,04,02,09,04,986.83
2010,04,02,09,05,986.83
2010,04,02,09,06,986.83
2010,04,02,09,07,986.83
2010,04,02,09,08,986.86
2010,04,02,09,09,986.93
2010,04,02,09,10,986.79
2010,04,02,09,11,986.79
2010,04,02,09,12,986.83
2010,04,02,09,13,986.76
2010,04,02,09,14,986.79
2010,04,02,09,15,986.76
2010,04,02,09,16,986.76
2010,04,02,09,17,986.73
2010,04,02,09,18,986.73
2010,04,02,09,19,986.76
2010,04,02,09,20,986.47
2010,04,02,09,21,986.61
2010,04,02,09,22,986.51
2010,04,02,09,23,986.39
2010,04,02,09,24,986.32
2010,04,02,09,25,986.35
2010,04,02,09,26,986.42
2010,04,02,09,27,986.42
2010,04,02,09,28,986.45
2010,04,02,09,29,986.25
2010,04,02,09,30,986.25
2010,04,02,09,31,986.32
2010,04,02,09,32,986.32
2010,04,02,09,33,986.31
2010,04,02,09,34,986.18
2010,04,02,09,35,986.12
2010,04,02,09,36,985.95
2010,04,02,09,37,985.88
2010,04,02,09,38,985.88
2010,04,02,09,39,985.80
2010,04,02,09,40,985.68
2010,04,02,09,41,985.64
2010,04,02,09,42,985.67
2010,04,02,09,43,985.57
2010,04,02,09,44,985.64
2010,04,02,09,45,985.57
2010,04,02,09,46,985.51
2010,04,02,09,47,985.57
2010,04,02,09,48,985.47
2010,04,02,09,49,985.57
2010,04,02,09,50,985.57
2010,04,02,09,51,985.51
2010,04,02,09,52,985.51
2010,04,02,09,53,985.47
2010,04,02,09,54,985.44
2010,04,02,09,55,985.34
2010,04,02,09,56,985.34
2010,04,02,09,57,985.27
2010,04,02,09,58,985.24
2010,04,02,09,59,985.17
2010,04,02,10,00,985.20
2010,04,02,10,01,985.07
2010,04,02,10,02,985.13
2010,04,02,10,03,985.13
2010,04,02,10,04,985.08
2010,04,02,10,05,985.17
2010,04,02,10,06,984.91
2010,04,02,10,07,985.10
2010,04,02,10,08,985.07
2010,04,02,10,09,985.00
2010,04,02,10,10,985.06
2010,04,02,10,11,984.90
2010,04,02,10,12,984.90
2010,04,02,10,13,984.85
2010,04,02,10,14,984.76
2010,04,02,10,15,984.83
2010,04,02,10,16,984.76
2010,04,02,10,17,984.72
2010,04,02,10,18,984.56
2010,04,02,10,19,984.69
2010,04,02,10,20,984.73
2010,04,02,10,21,984.63
2010,04,02,10,22,984.69
2010,04,02,10,23,984.66
2010,04,02,10,24,984.49
2010,04,02,10,25,984.35
2010,04,02,10,26,984.22
2010,04,02,10,27,984.46
2010,04,02,10,28,984.42
2010,04,02,10,29,984.49
2010,04,02,10,30,984.49
2010,04,02,10,31,984.49
2010,04,02,10,32,984.39
2010,04,02,10,33,984.66
2010,04,02,10,34,984.66
2010,04,02,10,35,984.73
2010,04,02,10,36,984.69
2010,04,02,10,37,984.69
2010,04,02,10,38,984.69
2010,04,02,10,39,984.69
2010,04,02,10,40,984.73
2010,04,02,10,41,984.69
2010,04,02,10,42,984.69
2010,04,02,10,43,984.69
2010,04,02,10,44,984.69
2010,04,02,10,45,984.62
2010,04,02,10,46,984.46
2010,04,02,10,47,984.66
2010,04,02,10,48,984.66
2010,04,02,10,49,984.66
2010,04,02,10,50,984.63
2010,04,02,10,51,984.66
2010,04,02,10,52,984.63
2010,04,02,10,53,984.63
2010,04,02,10,54,984.63
2010,04,02,10,55,984.73
2010,04,02,10,56,984.76
2010,04,02,10,57,984.83
2010,04,02,10,58,984.73
2010,04,02,10,59,984.74
2010,04,02,11,00,984.93
2010,04,02,11,01,984.73
2010,04,02,11,02,984.69
2010,04,02,11,03,984.66
2010,04,02,11,04,984.73
2010,04,02,11,05,984.67
2010,04,02,11,06,984.76
2010,04,02,11,07,984.69
2010,04,02,11,08,984.59
2010,04,02,11,09,984.59
2010,04,02,11,10,984.56
2010,04,02,11,11,984.49
2010,04,02,11,12,984.49
2010,04,02,11,13,984.46
2010,04,02,11,14,984.48
2010,04,02,11,15,984.39
2010,04,02,11,16,984.32
2010,04,02,11,17,984.36
2010,04,02,11,18,984.46
2010,04,02,11,19,984.32
2010,04,02,11,20,984.42
2010,04,02,11,21,984.36
2010,04,02,11,22,984.29
2010,04,02,11,23,984.25
2010,04,02,11,24,984.25
2010,04,02,11,25,984.29
2010,04,02,11,26,984.22
2010,04,02,11,27,984.25
2010,04,02,11,28,984.22
2010,04,02,11,29,984.15
2010,04,02,11,30,984.12
2010,04,02,11,31,984.12
2010,04,02,11,32,984.12
2010,04,02,11,33,983.98
2010,04,02,11,34,983.95
2010,04,02,11,35,983.99
2010,04,02,11,36,984.07
2010,04,02,11,37,983.95
2010,04,02,11,38,983.95
2010,04,02,11,39,984.02
2010,04,02,11,40,983.95
2010,04,02,11,41,983.92
2010,04,02,11,42,983.98
2010,04,02,11,43,983.92
2010,04,02,11,44,984.02
2010,04,02,11,45,983.81
2010,04,02,11,46,983.92
2010,04,02,11,47,983.80
2010,04,02,11,48,983.64
2010,04,02,11,49,983.68
2010,04,02,11,50,983.61
2010,04,02,11,51,983.64
2010,04,02,11,52,983.71
2010,04,02,11,53,983.61
2010,04,02,11,54,983.71
2010,04,02,11,55,983.75
2010,04,02,11,56,983.64
2010,04,02,11,57,983.71
2010,04,02,11,58,983.71
2010,04,02,11,59,983.71
2010,04,02,12,00,983.81
2010,04,02,12,01,983.75
2010,04,02,12,02,983.72
2010,04,02,12,03,983.92
2010,04,02,12,04,983.81
2010,04,02,12,05,983.81
2010,04,02,12,06,983.71
2010,04,02,12,07,983.57
2010,04,02,12,08,983.48
2010,04,02,12,09,983.61
2010,04,02,12,10,983.64
2010,04,02,12,11,983.81
2010,04,02,12,12,983.68
2010,04,02,12,13,983.48
2010,04,02,12,14,983.61
2010,04,02,12,15,983.51
2010,04,02,12,16,983.61
2010,04,02,12,17,983.58
2010,04,02,12,18,983.58
2010,04,02,12,19,983.58
2010,04,02,12,20,983.51
2010,04,02,12,21,983.48
2010,04,02,12,22,983.50
2010,04,02,12,23,983.37
2010,04,02,12,24,983.34
2010,04,02,12,25,983.34
2010,04,02,12,26,983.41
2010,04,02,12,27,983.41
2010,04,02,12,28,983.44
2010,04,02,12,29,983.44
2010,04,02,12,30,983.51
2010,04,02,12,31,983.51
2010,04,02,12,32,983.41
2010,04,02,12,33,983.41
2010,04,02,12,34,983.37
2010,04,02,12,35,983.24
2010,04,02,12,36,983.27
2010,04,02,12,37,983.27
2010,04,02,12,38,983.37
2010,04,02,12,39,983.44
2010,04,02,12,40,983.27
2010,04,02,12,41,983.24
2010,04,02,12,42,983.31
2010,04,02,12,43,983.34
2010,04,02,12,44,983.27
2010,04,02,12,45,983.20
2010,04,02,12,46,983.33
2010,04,02,12,47,983.27
2010,04,02,12,48,983.34
2010,04,02,12,49,983.24
2010,04,02,12,50,983.20
2010,04,02,12,51,983.27
2010,04,02,12,52,983.20
2010,04,02,12,53,983.31
2010,04,02,12,54,983.24
2010,04,02,12,55,983.23
2010,04,02,12,56,983.10
2010,04,02,12,57,983.10
2010,04,02,12,58,983.10
2010,04,02,12,59,983.24
2010,04,02,13,00,983.24
2010,04,02,13,01,983.20
2010,04,02,13,02,983.20
2010,04,02,13,03,983.34
2010,04,02,13,04,983.20
2010,04,02,13,05,983.05
2010,04,02,13,06,983.14
2010,04,02,13,07,983.04
2010,04,02,13,08,982.93
2010,04,02,13,09,983.00
2010,04,02,13,10,982.87
2010,04,02,13,11,982.80
2010,04,02,13,12,982.97
2010,04,02,13,13,982.87
2010,04,02,13,14,982.90
2010,04,02,13,15,982.90
2010,04,02,13,16,982.63
2010,04,02,13,17,982.83
2010,04,02,13,18,982.76
2010,04,02,13,19,982.80
2010,04,02,13,20,982.87
2010,04,02,13,21,982.90
2010,04,02,13,22,982.76
2010,04,02,13,23,982.80
2010,04,02,13,24,982.87
2010,04,02,13,25,982.66
2010,04,02,13,26,982.70
2010,04,02,13,27,982.76
2010,04,02,13,28,982.76
2010,04,02,13,29,982.87
2010,04,02,13,30,982.63
2010,04,02,13,31,982.46
2010,04,02,13,32,982.49
2010,04,02,13,33,982.32
2010,04,02,13,34,982.39
2010,04,02,13,35,982.46
2010,04,02,13,36,982.49
2010,04,02,13,37,982.19
2010,04,02,13,38,982.36
2010,04,02,13,39,982.29
2010,04,02,13,40,982.32
2010,04,02,13,41,982.36
2010,04,02,13,42,982.29
2010,04,02,13,43,982.26
2010,04,02,13,44,982.19
2010,04,02,13,45,982.29
2010,04,02,13,46,982.43
2010,04,02,13,47,982.29
2010,04,02,13,48,982.29
2010,04,02,13,49,982.32
2010,04,02,13,50,982.39
2010,04,02,13,51,982.39
2010,04,02,13,52,982.29
2010,04,02,13,53,982.26
2010,04,02,13,54,982.32
2010,04,02,13,55,982.29
2010,04,02,13,56,982.29
2010,04,02,13,57,982.26
2010,04,02,13,58,982.19
2010,04,02,13,59,982.19
2010,04,02,14,00,982.26
2010,04,02,14,01,982.15
2010,04,02,14,02,982.12
2010,04,02,14,03,982.02
2010,04,02,14,04,982.12
2010,04,02,14,05,982.09
2010,04,02,14,06,982.22
2010,04,02,14,07,982.19
2010,04,02,14,08,982.22
2010,04,02,14,09,982.09
2010,04,02,14,10,982.15
2010,04,02,14,11,982.12
2010,04,02,14,12,982.02
2010,04,02,14,13,981.99
2010,04,02,14,14,981.88
2010,04,02,14,15,982.19
2010,04,02,14,16,982.12
2010,04,02,14,17,981.95
2010,04,02,14,18,981.95
2010,04,02,14,19,982.02
2010,04,02,14,20,982.02
2010,04,02,14,21,981.99
2010,04,02,14,22,981.92
2010,04,02,14,23,982.02
2010,04,02,14,24,981.82
2010,04,02,14,25,982.01
2010,04,02,14,26,981.83
2010,04,02,14,27,981.95
2010,04,02,14,28,981.99
2010,04,02,14,29,981.75
2010,04,02,14,30,981.88
2010,04,02,14,31,981.88
2010,04,02,14,32,981.82
2010,04,02,14,33,981.92
2010,04,02,14,34,981.99
2010,04,02,14,35,981.88
2010,04,02,14,36,981.95
2010,04,02,14,37,981.95
2010,04,02,14,38,981.85
2010,04,02,14,39,981.87
2010,04,02,14,40,981.78
2010,04,02,14,41,981.95
2010,04,02,14,42,981.82
2010,04,02,14,43,981.75
2010,04,02,14,44,981.78
2010,04,02,14,45,981.75
2010,04,02,14,46,981.68
2010,04,02,14,47,981.85
2010,04,02,14,48,981.88
2010,04,02,14,49,981.65
2010,04,02,14,50,981.82
2010,04,02,14,51,981.95
2010,04,02,14,52,981.78
2010,04,02,14,53,981.88
2010,04,02,14,54,981.88
2010,04,02,14,55,981.85
2010,04,02,14,56,981.78
2010,04,02,14,57,981.85
2010,04,02,14,58,981.82
2010,04,02,14,59,981.68
2010,04,02,15,00,981.71
2010,04,02,15,01,981.68
2010,04,02,15,02,981.65
2010,04,02,15,03,981.58
2010,04,02,15,04,981.71
2010,04,02,15,05,981.88
2010,04,02,15,06,981.65
2010,04,02,15,07,981.88
2010,04,02,15,08,981.82
2010,04,02,15,09,981.75
2010,04,02,15,10,981.82
2010,04,02,15,11,982.02
2010,04,02,15,12,981.85
2010,04,02,15,13,981.78
2010,04,02,15,14,981.85
2010,04,02,15,15,981.78
2010,04,02,15,16,981.82
2010,04,02,15,17,981.61
2010,04,02,15,18,981.78
2010,04,02,15,19,981.68
2010,04,02,15,20,981.78
2010,04,02,15,21,981.78
2010,04,02,15,22,981.71
2010,04,02,15,23,981.78
2010,04,02,15,24,981.85
2010,04,02,15,25,981.85
2010,04,02,15,26,981.75
2010,04,02,15,27,981.82
2010,04,02,15,28,981.75
2010,04,02,15,29,981.71
2010,04,02,15,30,981.68
2010,04,02,15,31,981.71
2010,04,02,15,32,981.75
2010,04,02,15,33,981.75
2010,04,02,15,34,981.85
2010,04,02,15,35,981.85
2010,04,02,15,36,981.61
2010,04,02,15,37,981.65
2010,04,02,15,38,981.55
2010,04,02,15,39,981.61
2010,04,02,15,40,981.75
2010,04,02,15,41,981.58
2010,04,02,15,42,981.71
2010,04,02,15,43,981.65
2010,04,02,15,44,981.75
2010,04,02,15,45,981.71
2010,04,02,15,46,981.78
2010,04,02,15,47,981.68
2010,04,02,15,48,981.65
2010,04,02,15,49,981.55
2010,04,02,15,50,981.71
2010,04,02,15,51,981.65
2010,04,02,15,52,981.65
2010,04,02,15,53,981.68
2010,04,02,15,54,981.85
2010,04,02,15,55,981.71
2010,04,02,15,56,981.71
2010,04,02,15,57,981.58
2010,04,02,15,58,981.65
2010,04,02,15,59,981.68
2010,04,02,16,00,981.51
2010,04,02,16,01,981.55
2010,04,02,16,02,981.61
2010,04,02,16,03,981.58
2010,04,02,16,04,981.61
2010,04,02,16,05,981.48
2010,04,02,16,06,981.55
2010,04,02,16,07,981.48
2010,04,02,16,08,981.44
2010,04,02,16,09,981.44
2010,04,02,16,10,981.44
2010,04,02,16,11,981.44
2010,04,02,16,12,981.55
2010,04,02,16,13,981.41
2010,04,02,16,14,981.55
2010,04,02,16,15,981.44
2010,04,02,16,16,981.48
2010,04,02,16,17,981.38
2010,04,02,16,18,981.34
2010,04,02,16,19,981.21
2010,04,02,16,20,981.27
2010,04,02,16,21,981.24
2010,04,02,16,22,981.24
2010,04,02,16,23,981.24
2010,04,02,16,24,981.10
2010,04,02,16,25,981.21
2010,04,02,16,26,981.14
2010,04,02,16,27,981.10